Kuchera_Ratio
0.0 0.0 0.0 0.0 0.0 0.0 0.0 0.0 0.0 0.0 0.0 0.0 0.0 0.0 0.0 0.0 0.0 0.0 0.0 0.0 0.0 0.0 0.0 0.0 0.0 0.0 0.0 0.0 0.0 0.0 0.0 0.0 0.0 0.0 0.0 0.0 0.0 0.0 0.0 0.0 0.0 0.0 0.0 0.0 0.0 0.0 0.0 0.0 0.0
0.0 0.0 0.0 0.0 0.0 0.0 0.0 0.0 0.0 0.0 0.0 0.0 0.0 0.0 0.0 0.0 0.0 0.0 0.0 0.0 0.0 0.0 0.0 0.0 0.0 0.0 0.0 0.0 0.0 0.0 0.0 0.0 0.0 0.0 0.0 0.0 0.0 0.0 0.0 0.0 0.0 0.0 0.0 0.0 0.0 0.0 0.0 0.0 0.0
0.0 0.0 0.0 0.0 0.0 0.0 0.0 0.0 0.0 0.0 0.0 0.0 0.0 0.0 0.0 0.0 0.0 0.0 0.0 0.0 0.0 0.0 0.0 0.0 0.0 0.0 0.0 0.0 0.0 0.0 0.0 0.0 0.0 0.0 0.0 0.0 0.0 0.0 0.0 0.0 0.0 0.0 0.0 0.0 0.0 0.0 0.0 0.0 0.0
0.0 0.0 0.0 0.0 0.0 0.0 0.0 0.0 0.0 0.0 0.0 0.0 0.0 0.0 0.0 0.0 0.0 0.0 0.0 0.0 0.0 0.0 0.0 0.0 0.0 0.0 0.0 0.0 0.0 0.0 0.0 0.0 0.0 0.0 0.0 0.0 0.0 0.0 0.0 0.0 0.0 0.0 0.0 0.0 0.0 0.0 0.0 0.0 0.0
0.0 0.0 0.0 0.0 0.0 0.0 0.0 0.0 0.0 0.0 0.0 0.0 0.0 0.0 0.0 0.0 0.0 0.0 0.0 0.0 0.0 0.0 0.0 0.0 0.0 0.0 0.0 0.0 0.0 0.0 0.0 0.0 0.0 0.0 0.0 0.0 0.0 0.0 0.0 0.0 0.0 0.0 0.0 0.0 0.0 0.0 0.0 0.0 0.0
0.0 0.0 0.0 0.0 0.0 0.0 0.0 0.0 0.0 0.0 0.0 0.0 0.0 0.0 0.0 0.0 0.0 0.0 0.0 0.0 0.0 0.0 0.0 0.0 0.0 0.0 0.0 0.0 0.0 0.0 0.0 0.0 0.0 0.0 0.0 0.0 0.0 0.0 0.0 0.0 0.0 0.0 0.0 0.0 0.0 0.0 0.0 0.0 0.0
0.0 0.0 0.0 0.0 0.0 0.0 0.0 0.0 0.0 0.0 0.0 0.0 0.0 0.0 0.0 0.0 0.0 0.0 0.0 0.0 0.0 0.0 0.0 0.0 0.0 0.0 0.0 0.0 0.0 0.0 0.0 0.0 0.0 0.0 0.0 0.0 0.0 0.0 0.0 0.0 0.0 0.0 0.0 0.0 0.0 0.0 0.0 0.0 0.0
0.0 0.0 0.0 0.0 0.0 0.0 0.0 0.0 0.0 0.0 0.0 0.0 0.0 0.0 0.0 0.0 0.0 0.0 0.0 0.0 0.0 0.0 0.0 0.0 0.0 0.0 0.0 0.0 0.0 0.0 0.0 0.0 0.0 0.0 0.0 0.0 0.0 0.0 0.0 0.0 0.0 0.0 0.0 0.0 0.0 0.0 0.0 0.0 0.0
0.0 0.0 0.0 0.0 0.0 0.0 0.0 0.0 0.0 0.0 0.0 0.0 0.0 0.0 0.9 0.0 0.0 1.7 3.0 2.8 2.3 0.1 0.5 0.2 0.4 0.0 0.0 0.0 0.0 0.0 0.0 0.0 0.0 0.0 0.0 0.0 0.0 0.0 0.0 0.0 0.0 0.0 0.0 0.0 0.0 0.0 0.0 0.0 0.0
0.0 0.0 0.0 0.0 0.0 0.0 0.0 0.0 0.0 0.0 0.0 0.0 0.0 0.8 0.6 1.3 3.5 4.2 4.4 4.4 3.9 3.5 3.1 2.5 2.0 2.0 1.3 0.0 0.1 0.0 0.0 0.0 0.0 0.0 0.0 0.0 0.0 0.0 0.0 0.0 0.0 0.0 0.0 0.0 0.0 0.0 0.0 0.0 0.0
0.0 0.0 0.0 0.0 0.0 0.0 0.0 0.0 0.0 0.0 0.0 0.3 0.9 1.9 3.1 3.4 4.0 5.1 5.5 6.0 5.3 5.5 5.0 4.1 3.3 3.1 3.0 2.9 2.4 1.7 1.0 0.8 0.0 0.0 0.0 0.0 0.0 0.0 0.0 0.0 0.0 0.0 0.0 0.0 0.0 0.0 0.0 0.0 0.0
0.0 0.0 0.0 0.0 0.0 0.0 0.0 0.0 0.0 0.9 1.8 2.7 3.5 4.6 5.5 6.0 6.8 7.0 7.0 7.2 7.6 7.5 6.6 5.3 4.4 4.6 4.8 4.9 4.5 3.2 3.4 3.2 3.0 2.0 1.2 0.0 0.0 0.0 0.0 0.0 0.0 0.0 0.0 0.0 0.0 0.0 0.0 0.0 0.0
0.0 0.0 0.0 0.0 0.0 0.0 0.4 1.5 2.2 2.5 2.1 2.7 3.9 5.8 7.1 7.0 7.3 8.0 8.1 7.9 8.4 8.6 7.6 6.7 5.2 5.7 5.2 5.7 6.1 5.7 5.1 5.3 5.1 4.4 3.4 3.1 2.4 1.8 0.0 0.0 0.0 0.0 0.0 0.0 0.0 0.0 0.0 0.0 0.0
0.0 0.0 0.0 0.0 0.5 1.1 2.5 3.7 3.0 1.7 3.0 4.3 5.6 6.7 7.1 7.4 7.6 7.6 7.2 7.2 7.0 6.7 6.8 6.9 5.5 5.6 6.2 7.1 7.6 7.6 6.9 5.8 5.8 5.8 5.2 4.4 4.3 5.3 3.9 2.7 0.6 0.0 0.0 0.0 0.0 0.0 0.0 0.0 0.0
0.0 0.0 0.0 0.0 0.0 3.1 3.0 3.7 1.4 3.0 4.1 5.4 6.2 7.1 7.2 7.8 8.2 8.6 8.9 9.3 9.7 9.4 8.4 8.2 4.4 5.1 7.5 8.3 8.0 8.0 7.5 6.4 7.5 6.8 5.9 5.6 4.7 6.3 5.8 6.1 5.0 3.4 1.4 0.0 0.0 0.0 0.0 0.0 0.0
0.1 0.3 0.8 0.0 0.6 3.0 1.5 3.2 3.7 4.9 6.1 7.1 7.9 8.1 8.5 9.1 9.5 9.7 9.2 10.1 9.9 10.7 10.7 8.7 5.1 7.7 7.9 8.6 9.1 8.7 8.8 8.9 8.7 7.9 7.5 5.8 5.6 6.0 6.8 7.5 6.7 4.4 4.1 3.0 0.0 0.0 0.0 0.0 0.0
0.7 0.9 1.3 2.8 2.9 4.7 6.1 5.4 5.0 6.3 7.9 8.6 8.9 9.1 10.0 10.4 10.8 10.0 10.0 10.1 9.8 10.4 10.8 10.4 9.1 9.4 9.1 8.6 8.5 9.1 9.4 10.4 10.1 9.8 8.8 7.2 6.7 6.3 7.7 8.1 7.5 5.6 6.1 5.3 0.5 3.2 1.7 0.0 0.0
0.9 2.6 3.3 5.1 6.2 6.3 7.8 6.5 6.2 6.2 7.8 8.2 8.3 9.1 10.6 11.4 12.3 10.9 10.0 9.5 9.9 10.4 10.8 11.1 10.5 10.3 9.8 10.3 10.8 11.0 10.5 9.6 9.4 10.8 10.1 7.6 8.0 7.3 8.6 8.4 7.8 7.3 7.8 7.5 6.3 6.4 2.6 1.4 0.0
3.4 4.8 6.5 6.5 7.7 9.0 8.3 8.8 8.6 7.9 7.3 7.5 8.3 9.8 10.8 12.5 12.6 11.1 10.0 9.4 10.0 10.6 11.4 12.0 12.3 11.9 12.0 12.1 12.3 11.7 12.5 11.6 11.6 10.4 8.6 8.6 8.4 8.1 9.5 9.3 9.4 9.3 10.2 9.3 7.8 7.6 3.9 3.9 2.5
4.1 6.4 7.7 8.9 9.4 10.0 9.6 8.4 8.8 7.9 7.5 8.1 9.7 11.5 12.6 13.3 13.5 11.1 10.6 10.4 11.1 12.2 12.1 12.4 11.3 11.2 11.2 11.5 11.8 12.4 12.6 11.1 11.1 10.0 10.4 9.7 9.3 9.2 8.6 10.3 10.7 10.8 11.2 10.7 10.1 9.9 6.3 5.5 2.5
5.8 7.4 8.0 10.1 10.3 10.9 10.5 8.0 6.5 6.5 8.0 9.3 10.9 12.3 13.6 14.8 14.4 13.6 11.7 11.9 12.2 12.6 12.5 12.5 12.0 11.8 12.0 12.1 10.9 10.6 10.7 10.9 11.2 10.7 10.1 9.3 9.9 9.6 9.8 10.5 10.9 11.5 11.4 12.4 12.0 10.9 6.9 12.0 6.8
8.3 8.1 10.0 11.4 12.2 12.6 12.8 12.6 8.8 9.0 9.6 10.5 12.7 14.3 15.6 15.1 14.5 14.3 12.5 12.9 12.8 12.4 12.4 12.8 12.4 11.8 10.2 11.5 12.7 14.5 14.5 14.9 13.0 13.0 11.2 10.9 10.2 10.9 10.0 10.3 10.9 11.9 12.0 12.6 12.5 7.7 11.4 11.4 11.9
9.6 11.2 12.0 12.6 12.7 12.7 12.3 14.4 9.7 10.6 10.7 13.0 14.7 16.1 15.5 15.1 15.2 14.7 14.5 12.4 12.3 11.8 13.4 13.2 13.2 13.1 11.9 12.6 13.8 14.1 14.8 13.8 13.3 13.2 13.4 12.9 12.0 11.5 10.9 10.6 11.9 12.4 12.3 12.2 12.7 12.4 12.6 11.6 10.4
10.7 12.6 13.1 13.2 13.5 14.0 13.2 15.1 13.0 12.8 13.5 15.0 16.1 16.5 15.2 15.1 14.7 14.7 14.1 12.8 13.8 14.0 14.0 13.6 13.5 12.9 12.4 13.5 14.0 14.8 15.6 15.4 14.8 14.3 14.7 13.8 12.8 12.2 12.0 10.7 11.9 12.2 12.5 12.8 12.7 12.3 12.5 12.3 8.6
13.2 14.2 15.0 14.5 13.9 13.9 15.5 16.7 13.7 14.9 14.9 15.7 16.6 15.8 14.6 15.1 15.6 14.9 14.3 15.1 14.9 14.8 14.4 14.1 13.0 14.0 13.2 13.9 14.0 14.0 14.3 14.8 15.3 14.9 14.5 14.5 13.9 13.3 13.0 12.5 12.4 12.5 12.4 12.2 12.2 12.6 12.7 12.4 12.7
14.5 15.3 15.7 17.3 16.2 16.1 16.5 15.7 14.7 15.1 15.9 16.9 16.6 15.5 15.3 15.1 15.6 14.8 15.3 15.7 15.3 15.2 15.0 15.2 15.6 15.7 14.3 14.4 14.2 13.8 13.9 14.1 14.2 14.1 14.1 14.0 13.9 13.6 12.8 12.8 12.7 12.6 12.4 12.4 12.4 12.7 12.6 12.2 12.1
14.8 16.3 15.9 17.1 18.6 19.0 16.9 16.0 16.6 16.0 17.7 17.4 17.0 16.4 15.1 15.6 15.7 15.8 15.5 15.4 15.6 15.6 15.5 15.5 15.9 16.2 16.2 15.4 14.9 14.9 14.7 14.6 14.6 14.1 13.9 13.9 13.6 12.6 12.5 12.6 13.1 12.9 12.8 12.7 12.9 13.3 13.2 12.5 12.4
15.1 14.6 18.1 18.9 20.2 20.6 16.4 16.8 15.5 17.0 18.7 17.1 17.2 16.7 15.2 16.6 17.0 15.8 16.3 16.2 15.6 15.5 15.2 15.4 16.2 16.4 16.7 16.8 16.4 15.0 15.2 14.8 14.6 14.3 14.6 14.3 13.9 13.6 13.6 13.6 13.5 13.5 13.4 13.2 13.3 13.3 12.7 13.0 12.5
17.1 17.8 18.7 19.1 20.3 20.3 20.3 17.3 17.6 17.4 16.8 16.5 17.0 15.5 16.2 17.3 17.1 16.5 17.3 16.2 15.9 15.9 16.0 15.5 15.4 16.5 16.5 16.2 16.5 16.5 15.9 15.2 14.8 14.8 14.5 14.2 13.8 13.8 13.9 13.8 13.8 13.7 13.8 13.4 13.7 13.6 13.3 13.5 13.2
16.3 17.7 17.2 19.5 20.3 22.7 22.1 19.5 17.4 16.9 17.3 17.9 16.9 17.0 17.5 17.5 16.8 17.3 17.3 16.9 17.2 17.2 17.0 16.4 15.5 15.7 15.5 15.8 16.2 16.4 15.9 15.6 16.0 15.5 14.7 14.0 14.4 13.7 13.9 13.8 14.0 13.9 13.7 13.7 14.1 14.1 13.1 13.5 13.6